Reflectivity
-20 -20 -20 -20 -20 -20 -20 -20 -20 -20 -20 -20 -20 -20 -13 1 -20 -1 -20 -18 6 -19 -20 -20 -20 -20 -20 -8 7 -20 -20 -20 -20
-20 -20 -20 -20 -20 -20 -20 -20 -20 -20 -20 -20 -20 -20 -8 4 -18 -20 -19 -20 2 22 -16 -15 -16 -11 10 -20 15 15 -20 -20 5
-20 -20 -20 -20 -20 -20 -20 -20 -20 -20 -20 -20 -20 -20 -20 -20 -9 -7 -14 3 7 -15 5 33 15 -20 -20 -11 -9 27 3 -13 -18
-20 -20 -20 -20 -20 -20 -20 -20 -20 -20 -20 -20 -20 -20 -20 -20 -20 -20 -20 -9 8 0 4 -20 28 -14 -11 -9 12 4 12 -18 -16
-20 -20 -20 -20 -20 -20 -20 -20 -20 -20 -20 -20 -20 -20 -20 -20 -20 -20 -20 -7 2 7 6 -20 31 27 -6 19 22 1 -1 29 29
-20 -20 -20 -20 -20 -20 -20 -20 -20 -20 -20 -20 -20 -20 -20 -20 -20 -20 -20 -20 -8 8 11 -20 32 20 -5 0 20 -20 -15 -1 25
-20 -20 -20 -20 -20 -20 -20 -20 -20 -20 -20 -20 -20 -20 -20 -20 -20 -20 -20 -20 -20 10 18 7 32 24 -16 2 -9 4 -1 23 26
-20 -20 -20 -20 -20 -20 -20 -20 -20 -20 -20 -20 -20 -20 -20 -20 -20 -20 -20 -20 -20 -20 18 30 31 4 4 -8 -4 5 6 23 -3
-20 -20 -20 -20 -20 -20 -20 -20 -20 -20 -20 -20 -20 -20 -20 -9 -20 -20 -20 -20 -12 -10 -20 18 -20 34 23 33 -20 -20 -11 10 -16
-20 -20 -20 -20 -20 -20 -20 -20 -20 -20 6 -20 -20 -20 -20 -3 -19 -4 -17 4 23 -1 -13 -13 -20 -4 33 22 -20 -16 13 -12 13
-20 -20 -20 -20 -20 -20 -20 -20 -20 -20 -20 -20 -20 -20 -20 -15 -5 3 3 7 -18 3 -20 19 12 34 17 -0 -20 -20 -16 7 -20
-20 -20 -20 -20 -20 -20 -20 -20 -20 -20 -20 -20 -20 -20 -20 -20 -2 0 5 12 7 10 23 -17 -5 -4 33 4 -20 -17 -16 -20 -20
-20 -20 -20 -20 -20 -20 -20 -20 -20 -20 -18 -19 -20 -20 -20 -20 -20 1 1 6 10 18 -20 -12 26 4 -10 -20 -20 -20 -2 13 -20
-20 -20 -20 -20 -20 -20 -20 -20 -20 -20 -20 -20 -20 -20 -20 -20 -20 -20 -20 -20 -20 -18 -15 -8 2 9 2 -10 -5 -20 -4 -19 7
-20 -20 -20 -20 -20 -20 -20 -20 -20 -20 -20 -20 -20 -16 -20 -20 -20 -20 -20 3 -20 -20 14 -5 5 4 -0 -15 -20 -20 -18 -20 -12
-20 -20 -20 -20 -20 -20 -20 -20 -20 -20 -20 -20 -20 -20 -20 -20 -20 -20 -20 -7 -20 -18 -19 -16 -20 5 -16 -1 1 19 -12 -20 -13
-20 -20 -20 -20 -20 -20 -20 -20 -20 -20 -20 -20 -20 -20 -20 -20 -20 -20 -20 -20 -20 -20 -10 -15 -20 -6 -12 -19 7 -17 1 -19 -20
-20 -20 -20 -20 -20 -20 -20 -20 -20 -20 -20 -20 -13 1 -20 -20 -20 -20 -20 -20 -20 -20 -20 -20 -20 -20 -20 4 2 -20 -20 -20 -20
-20 -20 -20 -20 -20 -20 -20 -20 -20 -20 -20 -20 -20 1 -20 -20 -20 -20 -20 -20 -20 -10 -20 -20 -20 -16 -20 -20 -20 -20 -20 -20 -20
-20 -20 -20 -20 -20 -20 -20 -20 -20 -20 -20 -20 -20 -20 5 -2 -20 -20 -20 -20 -20 -20 3 -16 -20 -20 -20 -6 -18 -20 -20 -20 -20
Wind_Speed
3 5 11 16 21 21 24 21 20 19 21 18 19 18 16 13 12 8 9 11 9 8 9 6 7 11 9 7 8 10 9 8 8
7 3 7 10 15 17 18 19 20 21 20 19 19 19 14 13 13 14 9 10 10 8 9 4 5 8 9 8 8 8 9 8 3
7 9 7 11 13 18 18 18 21 23 20 19 19 18 16 14 15 14 11 8 10 11 10 8 5 8 9 10 7 8 8 4 5
8 10 11 10 14 16 18 19 21 18 19 19 18 17 17 15 14 14 13 9 10 11 10 9 8 8 8 7 8 6 6 6 5
7 3 9 12 13 15 17 19 19 20 18 19 18 16 13 14 12 12 14 11 11 11 12 10 8 9 9 8 8 5 5 5 6
2 1 5 10 14 14 15 18 17 19 18 18 18 16 16 15 15 14 14 14 11 11 12 12 9 10 9 8 8 6 5 4 4
8 5 5 9 12 15 16 15 16 15 18 17 16 17 16 14 15 13 13 12 11 11 11 12 11 10 10 10 9 7 7 6 4
5 2 4 8 10 12 14 13 14 12 15 16 16 15 15 15 13 13 11 10 11 11 11 10 11 8 10 10 8 8 8 7 7
11 4 2 6 8 10 15 16 13 13 14 15 14 13 14 13 12 10 10 10 11 10 10 12 11 10 10 9 8 10 9 6 8
10 13 12 6 11 12 13 16 15 14 15 13 12 11 11 11 12 12 10 10 10 11 11 11 12 10 11 11 9 10 9 2 8
11 9 11 7 8 11 13 15 17 16 16 13 12 12 12 12 12 11 11 11 11 11 9 10 9 10 11 11 7 10 9 7 6
11 13 13 9 8 11 13 15 16 14 15 13 14 14 13 13 12 12 12 11 12 9 9 9 9 10 11 12 10 12 11 10 8
14 14 12 11 7 11 15 15 17 16 15 15 15 15 15 13 12 12 13 11 10 9 9 9 10 11 11 8 11 13 14 10 7
13 12 10 9 7 9 14 14 16 16 15 16 15 14 14 14 13 12 11 11 11 10 9 9 7 10 10 12 10 11 13 13 8
15 11 11 5 6 5 12 15 13 14 14 14 13 13 14 15 13 12 12 12 10 10 9 10 10 11 8 8 11 15 15 15 13
16 15 9 10 3 5 8 13 14 16 12 14 14 15 15 15 15 13 13 13 13 11 10 10 10 9 7 10 10 10 17 15 13
14 14 14 11 8 7 8 11 13 14 13 14 15 15 15 14 14 14 14 13 13 12 13 12 12 11 10 9 11 9 11 12 12
13 12 13 13 11 6 9 10 11 13 13 15 14 14 14 15 14 15 13 13 13 14 14 13 12 12 12 11 11 13 14 14 13
11 11 12 10 11 9 6 8 10 11 13 15 15 11 13 13 13 14 13 13 13 8 8 17 15 11 8 10 15 16 18 20 16
10 10 9 10 9 11 5 7 8 9 9 13 15 16 14 13 14 14 14 13 13 13 4 4 13 11 9 7 4 15 20 20 18
Wind_Direction
89 225 221 201 189 195 188 186 192 187 192 193 196 197 200 205 216 220 217 217 210 220 239 254 144 174 191 210 246 233 234 243 239
151 189 210 199 186 193 185 179 195 199 196 193 199 199 198 190 199 229 207 210 208 224 235 224 164 175 189 200 223 228 227 229 248
154 146 200 190 192 187 186 190 192 203 194 196 199 200 195 198 195 206 229 196 214 211 225 241 216 198 203 192 212 235 222 219 236
339 145 174 199 191 186 189 191 189 192 195 193 198 203 191 203 200 197 208 189 207 209 212 223 226 195 207 203 204 225 235 217 217
13 352 169 184 196 190 190 187 189 190 194 195 199 191 193 194 209 210 197 202 205 207 204 205 221 203 193 207 201 189 209 228 196
5 263 194 183 185 193 200 188 197 186 191 198 192 187 189 198 200 201 222 191 217 200 203 204 213 197 194 190 191 184 186 232 153
10 150 212 233 197 191 197 194 190 198 189 193 197 185 186 195 212 206 212 203 184 214 206 199 204 196 184 195 187 175 177 172 180
51 345 249 209 239 191 185 198 185 195 193 196 194 188 186 191 204 203 215 189 197 206 207 202 196 197 187 184 190 180 174 169 178
336 22 249 240 214 225 182 192 187 192 199 192 194 179 198 176 181 200 211 191 206 195 198 201 195 193 192 176 181 112 129 192 169
338 6 322 270 210 215 202 190 187 189 195 189 184 170 200 167 174 197 199 189 188 194 196 191 188 186 184 180 141 131 136 194 172
358 326 322 273 233 199 203 191 182 193 188 180 178 169 192 176 181 191 192 184 187 194 188 187 188 176 174 167 154 142 149 187 178
339 316 312 273 221 199 194 192 181 186 181 175 177 179 183 181 181 191 189 190 189 183 180 181 177 163 166 168 150 159 170 193 176
347 334 330 308 220 190 179 188 178 180 177 174 184 185 178 179 178 193 184 186 181 176 179 181 187 163 162 176 163 169 188 193 190
330 338 322 320 264 230 166 182 183 181 175 185 182 183 176 175 179 189 188 177 174 177 177 173 182 167 180 173 167 175 186 204 249
338 329 326 321 278 253 156 179 177 181 185 177 177 174 182 177 173 191 180 186 171 176 172 171 190 181 181 188 173 173 195 202 228
348 339 341 321 287 207 174 180 184 194 184 173 179 175 189 182 170 189 172 178 187 185 177 193 197 188 186 191 189 174 176 191 209
357 349 336 332 306 169 194 184 197 200 183 182 185 185 190 184 180 186 178 187 188 196 190 204 202 193 196 200 188 191 183 200 206
358 357 346 333 320 300 180 191 202 208 185 183 191 195 200 193 192 190 186 203 198 203 204 197 209 196 203 199 200 198 186 184 192
351 357 356 346 326 313 321 188 196 207 208 186 191 192 209 206 201 186 202 204 211 207 239 176 208 232 229 192 198 177 178 174 188
340 349 6 357 343 334 324 295 196 190 212 183 203 191 196 216 213 206 200 208 216 208 171 183 198 207 233 102 215 169 172 175 177